Powrót do katalogu

RAPTOR1

AktywnyNaukaLEO
NORAD 58957·PAYLOAD·🇺🇸 United States

Wystrzelony Feb 14, 2024 z Cape Canaveral Space Force Station

Loading…

Następne Przeloty (najbliższe 24 godziny)

TLE

ŚwieżeSource: Space-Track

Epoka: Sep 14, 2026, 14:46 UTC

1 58957U 24028C   26257.61570106 -.00000042  00000-0  38734-4 0  9994
2 58957  39.9922 351.0372 0010950  47.8979 312.2699 13.74247741129352

Śledź RAPTOR1 w czasie rzeczywistym z AllMySat

Download on the App Store